Doha, Qatar

10:03 PM +03 on December 17, 2017 (GMT +0300)
Doha International

Weather History for OTBD - June, 2014

Change the Weather History Date:

Sunday, June 15, 2014

  Actual Average Record
Temperature  
Mean Temperature 99 °F -  
Max Temperature 107 °F 106 °F 116 °F (1997)
Min Temperature 91 °F 83 °F 78 °F (2001)
Cooling Degree Days 34    
Growing Degree Days 49 (Base 50)    
Moisture  
Dew Point 50 °F    
Average Humidity 19    
Maximum Humidity 34    
Minimum Humidity 5    
Precipitation  
Precipitation 0.00 in 0.00 in - ()
Sea Level Pressure  
Sea Level Pressure 29.62 in    
Wind  
Wind Speed 13 mph ()    
Max Wind Speed 23 mph    
Max Gust Speed 31 mph    
Visibility 9.6 miles    
Events      
Averages and records for this station are not official NWS values.
T = Trace of Precipitation, MM = Missing Value Source: Averaged Metar Reports

Daily Weather History Graph

Daily Weather History Graph

Search for Another Location

Airport or City:

Trip Planner

Search our weather history database for the weather conditions in past years. The results will help you decide how hot, cold, wet, or windy it might be!

Date:

Astronomy

Jun. 15, 2014 Rise Set
Actual Time 4:43 AM +03 6:25 PM +03
Civil Twilight 4:17 AM +03 6:51 PM +03
Nautical Twilight 3:46 AM +03 7:22 PM +03
Astronomical Twilight 3:13 AM +03 7:54 PM +03
Moon 8:32 PM +03 (6/15) 6:57 AM +03 (6/15)
Length of Visible Light 14h 33m
Length of Day
13h 42m
Waning Gibbous, 93% of the Moon is Illuminated
Jun 15
Waning Gibbous
Jun 19
Last Quarter
Jun 27
New
Jul 5
First Quarter
Jul 12
Full

Hourly Weather History & Observations

Time (+03) Temp. Heat Index Dew Point Humidity Pressure Visibility Wind Dir Wind Speed Gust Speed Precip Events Conditions
12:00 AM 95 °F - 50 °F 13% 29.62 in 9 mi NNW 11.5 mph - -  
12:00 AM 95.0 °F - 50.0 °F 22% 29.59 in - NNW 11.5 mph - N/A   Clear
12:30 AM 95.0 °F - 50.0 °F 22% 29.59 in - NNW 12.7 mph - N/A   Clear
1:00 AM 95.0 °F - 51.8 °F 23% 29.59 in - NNW 11.5 mph - N/A   Clear
1:30 AM 95.0 °F - 51.8 °F 23% 29.59 in - NNW 12.7 mph - N/A   Clear
2:00 AM 95.0 °F - 51.8 °F 23% 29.59 in - NNW 12.7 mph - N/A   Clear
2:30 AM 95.0 °F - 51.8 °F 23% 29.59 in - NNW 10.4 mph - N/A   Clear
3:00 AM 95 °F - 52 °F 15% 29.62 in 9 mi NNW 13.8 mph - -  
3:00 AM 95.0 °F - 51.8 °F 23% 29.59 in - NNW 13.8 mph - N/A   Clear
3:30 AM 95.0 °F 92.7 °F 53.6 °F 25% 29.59 in - NNW 13.8 mph - N/A   Clear
4:00 AM 95.0 °F 93.0 °F 55.4 °F 26% 29.62 in - NNW 13.8 mph - N/A   Clear
4:30 AM 93.2 °F 91.9 °F 57.2 °F 30% 29.62 in - NNW 13.8 mph - N/A   Clear
5:00 AM 93.2 °F 92.6 °F 59.0 °F 32% 29.62 in - NNW 12.7 mph - N/A   Clear
5:30 AM 93.2 °F 93.3 °F 60.8 °F 34% 29.62 in - NNW 12.7 mph - N/A   Clear
6:00 AM 92 °F - 61 °F 26% 29.65 in 9 mi NNW 12.7 mph - -   Clear
6:00 AM 93.2 °F 93.3 °F 60.8 °F 34% 29.65 in - NNW 12.7 mph - N/A   Clear
6:30 AM 93.2 °F 93.3 °F 60.8 °F 34% 29.65 in - NNW 11.5 mph - N/A   Clear
7:00 AM 93.2 °F 93.3 °F 60.8 °F 34% 29.65 in - NNW 13.8 mph - N/A   Clear
8:00 AM 95.0 °F 93.7 °F 57.2 °F 28% 29.68 in - NNW 17.3 mph - N/A   Clear
9:00 AM 99 °F - 60 °F 18% 29.69 in 9 mi NNW 13.8 mph - -   Clear
9:00 AM 98.6 °F 98.5 °F 59.0 °F 27% 29.68 in - NNW 13.8 mph - N/A   Clear
9:30 AM 100.4 °F 98.8 °F 55.4 °F 22% 29.68 in - North 16.1 mph - N/A   Clear
10:00 AM 102.2 °F 100.4 °F 53.6 °F 20% 29.68 in - North 19.6 mph - N/A   Clear
10:30 AM 102.2 °F 100.4 °F 53.6 °F 20% 29.65 in - North 20.7 mph - N/A   Clear
11:00 AM 102.2 °F 100.4 °F 53.6 °F 20% 29.65 in - North 23.0 mph - N/A   Clear
11:30 AM 102.2 °F 100.4 °F 53.6 °F 20% 29.65 in - North 21.9 mph - N/A   Clear
12:00 PM 103 °F - 55 °F 12% 29.66 in 10 mi North 18.4 mph - -  
12:00 PM 104.0 °F 102.9 °F 55.4 °F 20% 29.65 in - North 18.4 mph - N/A   Clear
12:30 PM 102.2 °F 103.6 °F 60.8 °F 26% 29.65 in - NNE 16.1 mph - N/A   Clear
1:00 PM 102.2 °F 103.6 °F 60.8 °F 26% 29.65 in - NNE 15.0 mph - N/A   Clear
2:00 PM 105.8 °F - 39.2 °F 10% 29.62 in - NW 17.3 mph 28.8 mph N/A   Clear
2:30 PM 105.8 °F - 35.6 °F 9% 29.59 in - NW 17.3 mph 31.1 mph N/A   Clear
3:00 PM 106 °F - 38 °F 5% 29.61 in 11 mi NW 15.0 mph - -  
3:00 PM 105.8 °F - 39.2 °F 10% 29.59 in - NW 15.0 mph - N/A   Clear
3:30 PM 105.8 °F - 35.6 °F 9% 29.59 in - NW 18.4 mph - N/A   Clear
4:00 PM 105.8 °F - 37.4 °F 10% 29.59 in - NW 13.8 mph - N/A   Clear
4:30 PM 104.0 °F - 33.8 °F 9% 29.59 in - NNW 17.3 mph - N/A   Clear
5:00 PM 104.0 °F - 37.4 °F 10% 29.59 in - NNW 15.0 mph - N/A   Clear
5:30 PM 102.2 °F - 39.2 °F 11% 29.59 in - NNW 16.1 mph - N/A   Clear
6:00 PM 100 °F - 43 °F 8% 29.61 in 11 mi NNW 13.8 mph - -  
6:00 PM 100.4 °F - 42.8 °F 14% 29.59 in - NNW 13.8 mph - N/A   Clear
6:30 PM 98.6 °F - 41.0 °F 14% 29.59 in - NNW 15.0 mph - N/A   Clear
7:00 PM 96.8 °F - 44.6 °F 17% 29.59 in - NNW 11.5 mph - N/A   Clear
7:30 PM 96.8 °F - 46.4 °F 18% 29.62 in - NW 9.2 mph - N/A   Clear
8:00 PM 96.8 °F - 46.4 °F 18% 29.62 in - NW 9.2 mph - N/A   Clear
8:30 PM 96.8 °F - 44.6 °F 17% 29.62 in - NW 9.2 mph - N/A   Clear
9:00 PM 96 °F - 41 °F 8% 29.63 in 9 mi NW 10.4 mph - -   Clear
9:00 PM 96.8 °F - 41.0 °F 15% 29.62 in - NW 10.4 mph - N/A   Clear
9:30 PM 96.8 °F - 42.8 °F 16% 29.62 in - NW 9.2 mph - N/A   Clear
10:00 PM 95.0 °F - 46.4 °F 19% 29.62 in - West 5.8 mph - N/A   Clear
11:00 PM 95.0 °F - 48.2 °F 20% 29.62 in - WNW 9.2 mph - N/A   Clear